Regional Weather Roundup
Issued by NWS

Home | Current Version | Previous Version | Graphics & Text | Print | Product List | Glossary On
Versions: 1 2 3 4 5 6 7 8 9 10 11 12 13 14 15 16 17 18 19 20 21 22 23 24 25 26 27 28 29 30 31 32 33 34 35 36 37 38 39 40 41 42 43 44 45 46 47 48 49 50
000
ASUS43 KOAX 310710
RWRNE

WEATHER ROUNDUP FOR NEBRASKA
NATIONAL WEATHER SERVICE OMAHA NE
100 AM CST SAT JAN 31 2015

NOTES: SATELLITE DATA IS BEING USED TO AUGMENT CLOUD COVER ABOVE
       12000 FEET.
       "FAIR" INDICATES FEW OR NO CLOUDS BELOW 12,000 FEET WITH NO
       SIGNIFICANT WEATHER AND/OR OBSTRUCTIONS TO VISIBILITY.

  * THESE STATIONS DO NOT REPORT WEATHER SUCH AS RAIN...SNOW OR FOG.

NEZ001>004-019>022-054>056-310800-
NEBRASKA PANHANDLE

CITY           SKY/WX    TMP DP  RH WIND       PRES   REMARKS
SCOTTSBLUFF    CLOUDY    35  27  72 N5        30.03F WCI  31
ALLIANCE       CLOUDY    29  26  89 N7        30.03F WCI  22
CHADRON        CLOUDY    28  24  85 CALM      30.08F
KIMBALL        CLOUDY    33  27  77 N3        30.01S
SIDNEY         CLOUDY    31  26  82 NW3       30.02F
$$

NEZ057>060-069>072-079>082-310800-
SOUTHWEST NEBRASKA

CITY           SKY/WX    TMP DP  RH WIND       PRES   REMARKS
NORTH PLATTE   CLOUDY    37  33  85 S9        30.09F WCI  30
IMPERIAL       CLOUDY    36  31  82 S9        30.07F WCI  29
LEXINGTON      CLOUDY    36  33  90 S9        30.14F WCI  29
MCCOOK         CLOUDY    35  33  92 S8        30.11F WCI  29
OGALLALA       CLOUDY    35  32  88 CALM      30.05F
$$

NEZ005>010-023>029-035>040-094-310800-
NORTH CENTRAL NEBRASKA

CITY           SKY/WX    TMP DP  RH WIND       PRES   REMARKS
VALENTINE      CLOUDY    28  25  88 CALM      30.09S
AINSWORTH      CLOUDY    35  29  80 SW7       30.09S WCI  29
BROKEN BOW     CLOUDY    37  32  82 S12       30.12F WCI  29
O`NEILL        CLOUDY    35  29  79 SW6       30.12F WCI  30
ORD            CLOUDY    36  31  82 S14       30.13F WCI  27
THEDFORD       CLOUDY    36  32  85 S8        30.08F WCI  30
$$

NEZ041-046>049-061>064-073>077-083>087-310800-
SOUTH CENTRAL NEBRASKA

CITY           SKY/WX    TMP DP  RH WIND       PRES   REMARKS
GRAND ISLAND   CLOUDY    37  32  82 S17       30.20F WCI  27
AURORA         CLOUDY    37  34  90 SW13      30.20F WCI  28
HASTINGS       CLOUDY    34  32  92 S6        30.19F WCI  29
HEBRON         LGT RAIN  35  32  90 S7        30.25F WCI  29
HOLDREGE       LGT RAIN  33  32  95 S7        30.16F WCI  27
KEARNEY *      CLOUDY    36  30  80 S12       30.18F WCI  27
YORK           CLOUDY    37  34  87 SW16      30.20F WCI  28
$$

NEZ011>018-030>034-042>045-310800-
NORTHEAST NEBRASKA

CITY           SKY/WX    TMP DP  RH WIND       PRES   REMARKS
NORFOLK        CLOUDY    34  28  79 SW6       30.15F WCI  29
ALBION         CLOUDY    40  32  73 SW9G16    30.15F WCI  33
BLAIR          CLOUDY    37  27  67 S14       30.20F WCI  28
COLUMBUS *     CLOUDY    39  28  65 SW10      30.20S WCI  32
FREMONT        CLOUDY    37  28  71 SW8       30.20F WCI  31
TEKAMAH        CLOUDY    35  27  72 S10       30.20F WCI  27
WAYNE          MOCLDY    34  28  80 S10       30.15F WCI  26
$$

NEZ050>053-065>068-078-088>093-310800-
SOUTHEAST NEBRASKA

CITY           SKY/WX    TMP DP  RH WIND       PRES   REMARKS
LINCOLN        CLOUDY    37  29  72 SW9       30.24F WCI  30
OMAHA EPPLEY   CLOUDY    33  25  72 SE8       30.23F WCI  26
BEATRICE       LGT RAIN  37  35  92 SW12      30.26F WCI  29
FALLS CITY     CLOUDY    34  23  64 S8        30.28F WCI  27
NEBRASKA CITY  CLOUDY    32  23  69 SW9       30.25F WCI  24
PLATTSMOUTH    CLOUDY    33  24  68 S10       30.23F WCI  25
$$

NEZ044-045-051>053-067-310800-
OMAHA AREA

CITY           SKY/WX    TMP DP  RH WIND       PRES   REMARKS
OMAHA EPPLEY   CLOUDY    33  25  72 SE8       30.23F WCI  26
BLAIR          CLOUDY    37  27  67 S14       30.20F WCI  28
FREMONT        CLOUDY    37  28  71 SW8       30.20F WCI  31
MILLARD        CLOUDY    37  27  68 S5        30.22F WCI  33
OFFUTT AFB     CLOUDY    35  26  68 SW5       30.23F WCI  31
PLATTSMOUTH    CLOUDY    33  24  68 S10       30.23F WCI  25
WAHOO          PTSUNNY   37  27  67 SW10      30.21F WCI  30
$$


USA.gov is the U.S. government's official web portal to all federal, state and local government web resources and services.